Simultaneous Nadir Overpasses (SNOs) Predictions

Prediction of SNOs between AQUA and METOP-C Satellite Orbit:

Table of predicted SNOs for the next 14.0 days since TLE Epoch: 8/20/2025
Index Date (AQUA) Time (AQUA) Lat,Lon (AQUA) SZA (AQUA ) Date (METOP-C) Time (METOP-C) Lat,Lon (METOP-C) SZA (METOP-C ) Distance(km) Time Diff (sec)
1 08/22/2025 01:04:13 -76.83, -12.19 114.98 08/22/2025 01:03:20 -76.85, -12.30 114.96 3.35 53
2 08/22/2025 01:53:33 76.89, 155.26 65.10 08/22/2025 01:53:59 76.88, 155.18 65.09 1.99 26
3 08/24/2025 13:02:51 76.78, -11.59 65.83 08/24/2025 13:01:39 76.70, -12.43 65.74 23.08 72
4 08/24/2025 13:52:11 -76.92, 155.56 114.03 08/24/2025 13:52:16 -76.91, 155.73 114.03 4.36 5
5 08/24/2025 14:41:41 77.44, -38.84 66.50 08/24/2025 14:42:44 77.43, -34.75 66.54 98.97 63
6 08/27/2025 01:50:49 76.90, 156.05 66.83 08/27/2025 01:50:32 76.90, 156.10 66.83 1.38 17
7 08/27/2025 02:40:07 -76.94, -36.45 113.12 08/27/2025 02:41:13 -76.93, -36.43 113.13 1.59 66
8 08/29/2025 13:49:25 -76.89, 156.50 112.30 08/29/2025 13:48:50 -76.87, 156.44 112.31 2.20 35
9 08/29/2025 14:38:44 76.91, -35.91 67.74 08/29/2025 14:39:29 76.91, -36.08 67.74 4.31 45
10 09/01/2025 01:48:02 76.88, 156.93 68.61 09/01/2025 01:47:05 76.89, 156.96 68.61 1.12 57
11 09/01/2025 02:37:20 -76.93, -35.55 111.34 09/01/2025 02:37:46 -76.93, -35.58 111.34 0.83 26
12 09/03/2025 13:46:36 -76.88, 157.37 110.48 09/03/2025 13:45:23 -76.82, 157.09 110.55 10.02 73
13 09/03/2025 14:35:55 76.91, -35.07 69.56 09/03/2025 14:36:00 76.94, -35.08 69.60 3.68 5



Historial Predications of SNOs between AQUA and METOP-C
